| time (UTC) | temp F | wind direction | speed MPH | gust MPH | rain 1hr in | rain 24hr in | rain mn in | humidity % | barometer mb |
| 20260504035409 | 70 | 229 | 0.0 | 6.0 | 0.00 | 0.00 | 0.00 | 38 | 1006.5 |
| 20260504033908 | 69 | 141 | 1.0 | 5.0 | 0.00 | 0.00 | 0.00 | 39 | 1006.6 |
| 20260504032407 | 69 | 260 | 0.0 | 5.0 | 0.00 | 0.00 | 0.00 | 38 | 1006.6 |
| 20260504030906 | 70 | 132 | 0.0 | 1.0 | 0.00 | 0.00 | 0.00 | 37 | 1006.5 |
| 20260504025405 | 71 | 145 | 0.0 | 1.0 | 0.00 | 0.00 | 0.00 | 37 | 1006.4 |
| 20260504022403 | 72 | 165 | 0.0 | 3.0 | 0.00 | 0.00 | 0.00 | 36 | 1006.4 |
| 20260504020902 | 72 | 151 | 0.0 | 3.0 | 0.00 | 0.00 | 0.00 | 34 | 1006.4 |
| 20260504013900 | 74 | 150 | 0.0 | 3.0 | 0.00 | 0.00 | 0.00 | 33 | 1006.4 |
| 20260504012359 | 75 | 160 | 0.0 | 0.0 | 0.00 | 0.00 | 0.00 | 31 | 1006.4 |
| 20260504010859 | 77 | 198 | 0.0 | 0.0 | 0.00 | 0.00 | 0.00 | 30 | 1006.4 |
| 20260504005357 | 78 | 215 | 0.0 | 1.0 | 0.00 | 0.00 | 0.00 | 29 | 1006.6 |
| 20260504003857 | 79 | 196 | 0.0 | 1.0 | 0.00 | 0.00 | 0.00 | 27 | 1006.7 |
| 20260504000854 | 81 | 212 | 0.0 | 1.0 | 0.00 | 0.00 | 0.00 | 25 | 1007.0 |
| 20260503235353 | 82 | 248 | 0.0 | 1.0 | 0.00 | 0.00 | 0.00 | 24 | 1007.2 |
| 20260503233852 | 82 | 250 | 0.0 | 1.0 | 0.00 | 0.00 | 0.00 | 24 | 1007.3 |
| 20260503232351 | 83 | 257 | 0.0 | 1.0 | 0.00 | 0.00 | 0.00 | 23 | 1007.5 |
| 20260503225350 | 85 | 226 | 0.0 | 4.0 | 0.00 | 0.00 | 0.00 | 23 | 1007.7 |
| 20260503222348 | 86 | 225 | 0.0 | 2.0 | 0.00 | 0.00 | 0.00 | 21 | 1008.0 |
| 20260503220847 | 86 | 212 | 0.0 | 1.0 | 0.00 | 0.00 | 0.00 | 19 | 1008.1 |
| 20260503215346 | 86 | 226 | 0.0 | 2.0 | 0.00 | 0.00 | 0.00 | 20 | 1008.2 |
| 20260503213845 | 87 | 248 | 0.0 | 2.0 | 0.00 | 0.00 | 0.00 | 19 | 1008.5 |
| 20260503212344 | 87 | 263 | 0.0 | 2.0 | 0.00 | 0.00 | 0.00 | 19 | 1008.9 |
| 20260503210843 | 87 | 269 | 0.0 | 17.0 | 0.00 | 0.00 | 0.00 | 18 | 1009.1 |
| 20260503205342 | 87 | 212 | 0.0 | 11.0 | 0.00 | 0.00 | 0.00 | 18 | 1009.3 |
| 20260503203841 | 87 | 253 | 0.0 | 14.0 | 0.00 | 0.00 | 0.00 | 18 | 1009.6 |
| 20260503200839 | 87 | 236 | 0.0 | 1.0 | 0.00 | 0.00 | 0.00 | 20 | 1010.2 |
| 20260503193837 | 86 | 260 | 0.0 | 2.0 | 0.00 | 0.00 | 0.00 | 18 | 1010.8 |
| 20260503192337 | 86 | 276 | 0.0 | 2.0 | 0.00 | 0.00 | 0.00 | 21 | 1010.9 |
| 20260503190836 | 86 | 214 | 0.0 | 2.0 | 0.00 | 0.00 | 0.00 | 20 | 1011.1 |
| 20260503185335 | 86 | 274 | 0.0 | 1.0 | 0.00 | 0.00 | 0.00 | 18 | 1011.5 |
| 20260503182332 | 85 | 245 | 0.0 | 1.0 | 0.00 | 0.00 | 0.00 | 21 | 1011.9 |
| 20260503180831 | 85 | 242 | 0.0 | 8.0 | 0.00 | 0.00 | 0.00 | 20 | 1012.3 |
| 20260503175330 | 85 | 236 | 0.0 | 1.0 | 0.00 | 0.00 | 0.00 | 19 | 1012.7 |
| 20260503173830 | 85 | 253 | 6.0 | 11.0 | 0.00 | 0.00 | 0.00 | 20 | 1013.0 |
| 20260503172328 | 84 | 271 | 0.0 | 3.0 | 0.00 | 0.00 | 0.00 | 23 | 1013.2 |
| 20260503170827 | 83 | 256 | 0.0 | 1.0 | 0.00 | 0.00 | 0.00 | 28 | 1013.4 |
| 20260503130812 | 52 | 211 | 0.0 | 1.0 | 0.00 | 0.00 | 0.00 | 77 | 1015.9 |
| 20260503110805 | 45 | 155 | 0.0 | 0.0 | 0.00 | 0.00 | 0.00 | 81 | 1015.7 |
| 20260503072250 | 51 | 166 | 0.0 | 1.0 | 0.00 | 0.00 | 0.00 | 63 | 1017.5 |
| 20260503070749 | 51 | 166 | 0.0 | 1.0 | 0.00 | 0.00 | 0.00 | 63 | 1017.5 |
| 20260503052242 | 51 | 155 | 0.0 | 0.0 | 0.00 | 0.00 | 0.00 | 55 | 1018.4 |
| 20260503050742 | 52 | 136 | 0.0 | 0.0 | 0.00 | 0.00 | 0.00 | 54 | 1018.3 |
| 20260503045240 | 52 | 133 | 1.0 | 1.0 | 0.00 | 0.00 | 0.06 | 52 | 1018.4 |